Tracking 21076 objects as of 8-Aug-2020
HD Live streaming from Space Station
objects crossing your sky now

OBJECT PN

Track OBJECT PN now!
10-day predictions


NORAD ID: 43638
Int'l Code: 1998-067PN
Perigee: 379.1 km
Apogee: 381.3 km
Inclination: 51.6 °
Period: 92.0 minutes
Semi major axis: 6751 km
RCS: Unknown
Launch date: November 20, 1998
Source: (TBD)
Launch site: TYURATAM MISSILE AND SPACE COMPLEX (TTMTR)
aabbcc
Your satellite tracking list
Your tracking list is empty




NASA's NSSDC Master Catalog

Two Line Element Set (TLE):
1 43638U 98067PN  20220.74909384  .00011439  00000-0  11928-3 0  9996
2 43638  51.6363  51.9183 0001635 220.4979 139.5895 15.65050636104704
Source of the keplerian elements: AFSPC